Regional Weather Roundup
Issued by NWS Newport/Morehead, NC

Current Version | Previous Version | Graphics & Text | Print | Product List | Glossary On
Versions: 1 2 3 4 5 6 7 8 9 10 11 12 13 14 15 16 17 18 19 20 21 22 23 24 25 26 27 28 29 30 31 32 33 34 35 36 37 38 39 40 41 42 43 44 45 46 47 48 49 50
104 ASUS42 KMHX 022125 RWRMHX WEATHER ROUNDUP FOR EASTERN NORTH CAROLINA NATIONAL WEATHER SERVICE NEWPORT/MOREHEAD CITY NC 500 PM EDT MON MAY 02 2016 NOTE: "FAIR" INDICATES FEW OR NO CLOUDS BELOW 12,000 FEET WITH NO SIGNIFICANT WEATHER AND/OR OBSTRUCTIONS TO VISIBILITY NCZ015>017-031-032-045>047-102-103-022200- NORTH COAST CITY SKY/WX TMP DP RH WIND PRES REMARKS EDENTON MOSUNNY 83 69 62 SW8 29.91F ELIZABETH CITY MOSUNNY 83 68 60 S12 29.90F KITTY HAWK CLOUDY 83 69 62 S7 29.91S MANTEO NOT AVBL $$ NCZ045>047-081-094-103-104-022200- CENTRAL COAST CITY SKY/WX TMP DP RH WIND PRES REMARKS FRISCO MOSUNNY 74 68 81 SW13G22 29.97F SWANQUARTER NOT AVBL $$ NCZ095-097-098-100-101-022200- SOUTHERN COAST CITY SKY/WX TMP DP RH WIND PRES REMARKS BEAUFORT CLOUDY 74 69 85 S16 29.97F CEDAR ISLAND NOT AVBL JACKSONVILLE CLOUDY 77 67 71 S12 29.95S THUNDER PINEY ISLAND NOT AVBL WILMINGTON SUNNY 83 65 54 S15G22 29.95F THUNDER $$ NCZ011>013-027>030-043-044-078>080-089-090>093-098-022200- COASTAL PLAIN CITY SKY/WX TMP DP RH WIND PRES REMARKS AHOSKIE MOSUNNY 82 68 62 CALM 29.89F CLINTON CLOUDY 80 71 74 CALM 29.93S ELIZABETHTOWN HVY RAIN 69 65 88 SW15G22 29.95F GOLDSBORO CLOUDY 82 72 69 SW14 29.90F GREENVILLE MOSUNNY 82 70 65 SW9 29.92F HAVELOCK PTSUNNY 77 68 73 S15G22 29.96F KENANSVILLE CLOUDY 78 61 55 S5G23 29.96R KINSTON CLOUDY 82 68 61 S8 29.92F NEW BERN PTSUNNY 79 67 66 S13 29.95R RICHLANDS CLOUDY 79 70 73 S12 29.94F ROCKY MOUNT MOSUNNY 81 67 62 S9 29.89F WASHINGTON MOSUNNY 82 68 63 SW9 29.90F WHITEVILLE SUNNY 81 69 66 S9G17 29.93S $$ AMZ130-135-150-152-154-156-158-170-250-252-270-ANZ085-086-088-633-658-670-022200- MARINE OBSERVATIONS STATION/POSITION TIME TEMP WIND PRES WAVE SWELL AIR SEA DIR/SP/G HT/PER HT/PER (UTC) (F) (DEG/KT/KT) (MB) (FT/S) (FT/S) CHESAPEAKE LIGHT 2100 69 160/ 13/ 13 1012.8 64 E VA BEACH 2050 60 54 210/ 10/ 12 1013.0 4/10 3/10 DUCK 2100 80 58 220/ 13/ 17 1012.4 2 E DUCK 2011 61 N/A 3/12 2/12 OREGON INLET 2100 72 71 190/ 18/ 21 1013.8 13E OREGON INLT 2100 62 N/A 4/12 3/12 HATTERAS CG 2100 74 69 210/ 11/ 17 1014.5 DIAMOND BUOY 2050 75 74 210/ 17/ 19 1014.8 4/11 3/11 CAPE LOOKOUT 2100 74 200/ 13/ 16 1014.6 BEAUFORT LAB 2100 72 68 200/ 12/ 17 1014.1 30 SE NEW RVR IN 2025 70 N/A 4/ 5 2/12 27 SE WRIGHTSVLE 2108 74 72 210/ 10/ 14 1014.5 5 SE WRIGHTSVLE 2108 73 70 200/ 12/ 16 1015.4 225 S CAPE HAT 2050 74 75 170/ 12/ 14 1018.6 3/11 3/11 41 SE CHARLESTON 2050 76 76 190/ 10/ 12 1015.2 3/ 6 2/ 6 $$

USA.gov is the U.S. government's official web portal to all federal, state and local government web resources and services.